Tracking 22283 objects as of 28-Jan-2021
HD Live streaming from Space Station
objects crossing your sky now

STARLINK-1075

Track STARLINK-1075 now!
10-day predictions
STARLINK-1075 is classified as:


NORAD ID: 44958
Int'l Code: 2020-001AW
Perigee: 553.0 km
Apogee: 555.7 km
Inclination: 53.1 °
Period: 95.6 minutes
Semi major axis: 6925 km
RCS: Unknown
Launch date: January 7, 2020
Source: United States (US)
Launch site: AIR FORCE EASTERN TEST RANGE (AFETR)
aabbcc
Your satellite tracking list
Your tracking list is empty




NASA's NSSDC Master Catalog

Two Line Element Set (TLE):
1 44958U 20001AW  21027.32701322 -.00000829  00000-0 -36782-4 0  9996
2 44958  53.0583  49.5137 0001912  61.0260 299.0921 15.06395514 58951
Source of the keplerian elements: AFSPC